Clermont County, Batavia, OH

11:44 AM EST on December 14, 2019 (GMT -0500)
Clermont County, Batavia

Weather History for KI69 - October, 2019

Change the Weather History Date:

Wednesday, October 2, 2019

  Actual Average (WUND) Record (WUND)
Temperature  
Mean Temperature 82 °F -  
Max Temperature 93 °F - - (-1)
Min Temperature 71 °F - - (-1)
Cooling Degree Days 17    
Growing Degree Days 32 (Base 50)    
Moisture  
Dew Point 64 °F    
Average Humidity 59    
Maximum Humidity 82    
Minimum Humidity 35    
Precipitation  
Precipitation 0.00 in - - ()
Sea Level Pressure  
Sea Level Pressure 29.98 in    
Wind  
Wind Speed 6 mph (WSW)    
Max Wind Speed 17 mph    
Max Gust Speed 25 mph    
Visibility 10 miles    
Events      
Averages and records for this station are not official NWS values.
T = Trace of Precipitation, MM = Missing Value Source: NWS Daily Summary

Daily Weather History Graph

Daily Weather History Graph

Search for Another Location

Airport or City:

Astronomy

Oct. 02, 2019 Rise Set
Actual Time 7:33 AM EDT 7:18 PM EDT
Civil Twilight 7:06 AM EDT 7:44 PM EDT
Nautical Twilight 6:35 AM EDT 8:15 PM EDT
Astronomical Twilight 6:04 AM EDT 8:46 PM EDT
Moon 11:56 AM EDT (10/2) 10:13 PM EDT (10/2)
Length of Visible Light 12h 37m
Length of Day
11h 44m
Waxing Crescent, 20% of the Moon is Illuminated
Oct 2
Waxing Crescent
Oct 5
First Quarter
Oct 13
Full
Oct 21
Last Quarter
Oct 27
New

Hourly Weather History & Observations

Time (EDT) Temp. Heat Index Dew Point Humidity Pressure Visibility Wind Dir Wind Speed Gust Speed Precip Events Conditions
12:19 AM 71.2 °F - 65.5 °F 82% 29.99 in 10.0 mi Calm Calm - N/A   Clear
12:37 AM 74.3 °F - 64.9 °F 72% 30.00 in 10.0 mi SW 4.6 mph - N/A   Clear
12:55 AM 73.9 °F - 64.8 °F 73% 29.99 in 10.0 mi SW 4.6 mph - N/A   Clear
1:15 AM 74.8 °F - 64.6 °F 70% 29.99 in 10.0 mi SW 4.6 mph - N/A   Clear
1:35 AM 73.6 °F - 64.8 °F 74% 29.99 in 10.0 mi SW 5.8 mph - N/A   Clear
1:58 AM 73.6 °F - 64.9 °F 74% 29.99 in 10.0 mi SW 5.8 mph - N/A   Clear
2:17 AM 74.1 °F - 64.9 °F 73% 30.00 in 10.0 mi SW 6.9 mph - N/A   Clear
2:35 AM 74.3 °F - 64.9 °F 72% 29.99 in 10.0 mi SW 5.8 mph - N/A   Clear
2:55 AM 74.3 °F - 64.9 °F 72% 29.99 in 10.0 mi SW 3.5 mph - N/A   Clear
3:15 AM 73.0 °F - 64.8 °F 75% 29.99 in 10.0 mi SW 3.5 mph - N/A   Clear
3:38 AM 72.5 °F - 64.8 °F 77% 29.99 in 10.0 mi Calm Calm - N/A   Clear
3:56 AM 71.8 °F - 64.8 °F 78% 29.99 in 10.0 mi SW 3.5 mph - N/A   Clear
4:15 AM 71.8 °F - 64.8 °F 78% 29.99 in 10.0 mi SW 4.6 mph - N/A   Clear
4:35 AM 72.5 °F - 64.6 °F 76% 29.99 in 10.0 mi SW 3.5 mph - N/A   Clear
5:18 AM 71.4 °F - 64.6 °F 79% 29.99 in 10.0 mi WSW 3.5 mph - N/A   Clear
5:36 AM 72.1 °F - 64.6 °F 77% 30.00 in 10.0 mi SW 4.6 mph - N/A   Clear
5:55 AM 72.1 °F - 64.6 °F 77% 30.00 in 10.0 mi SW 3.5 mph - N/A   Clear
5:56 AM 72.1 °F - 64.6 °F 77% 30.00 in 10.0 mi SW 3.5 mph - N/A   Clear
6:15 AM 72.0 °F - 64.6 °F 77% 30.00 in 10.0 mi SSW 3.5 mph - N/A   Clear
6:35 AM 72.0 °F - 64.6 °F 77% 30.00 in 10.0 mi SSW 3.5 mph - N/A   Clear
6:58 AM 71.6 °F - 64.6 °F 78% 30.01 in 10.0 mi SSW 3.5 mph - N/A   Clear
7:16 AM 71.6 °F - 64.6 °F 78% 30.01 in 10.0 mi SSW 3.5 mph - N/A   Clear
7:35 AM 71.4 °F - 64.4 °F 78% 30.02 in 10.0 mi SSW 3.5 mph - N/A   Clear
7:55 AM 71.6 °F - 64.6 °F 78% 30.03 in 10.0 mi SW 4.6 mph - N/A   Clear
8:15 AM 72.1 °F - 64.8 °F 78% 30.03 in 10.0 mi SW 4.6 mph - N/A   Clear
8:38 AM 72.7 °F - 65.3 °F 78% 30.03 in 10.0 mi SW 3.5 mph - N/A   Clear
8:56 AM 74.5 °F - 65.5 °F 73% 30.04 in 10.0 mi SW 6.9 mph - N/A   Clear
9:15 AM 75.9 °F - 66.0 °F 71% 30.04 in 10.0 mi SW 8.1 mph - N/A   Clear
9:36 AM 76.6 °F - 66.0 °F 70% 30.04 in 10.0 mi SW 8.1 mph - N/A   Clear
9:55 AM 78.3 °F - 66.4 °F 67% 30.04 in 10.0 mi WSW 8.1 mph - N/A   Clear
10:18 AM 80.1 °F 82.3 °F 67.1 °F 64% 30.03 in 10.0 mi WSW 9.2 mph - N/A   Clear
10:36 AM 81.3 °F 83.8 °F 67.3 °F 62% 30.03 in 10.0 mi WSW 9.2 mph - N/A   Clear
10:55 AM 83.1 °F 85.9 °F 67.3 °F 59% 30.03 in 10.0 mi WSW 11.5 mph 16.1 mph N/A   Clear
11:15 AM 82.9 °F 85.6 °F 67.1 °F 59% 30.02 in 10.0 mi WSW 11.5 mph - N/A   Clear
11:35 AM 85.8 °F 88.5 °F 67.1 °F 53% 30.02 in 10.0 mi West 11.5 mph 20.7 mph N/A   Clear
11:40 AM 86.5 °F 89.3 °F 66.9 °F 52% 30.01 in 10.0 mi West 13.8 mph 17.3 mph N/A   Clear
11:58 AM 87.3 °F 90.2 °F 66.9 °F 51% 30.01 in 10.0 mi WSW 12.7 mph 23.0 mph N/A   Clear
12:16 PM 88.0 °F 90.7 °F 66.4 °F 49% 30.01 in 10.0 mi West 13.8 mph 20.7 mph N/A   Clear
12:35 PM 89.1 °F 91.7 °F 66.6 °F 47% 30.00 in 10.0 mi SW 16.1 mph 19.6 mph N/A   Scattered Clouds
12:55 PM 88.7 °F 91.1 °F 65.8 °F 47% 30.00 in 10.0 mi West 8.1 mph 20.7 mph N/A   Scattered Clouds
1:19 PM 90.5 °F 93.3 °F 66.4 °F 45% 29.99 in 10.0 mi West 13.8 mph 18.4 mph N/A   Clear
1:38 PM 91.4 °F 93.6 °F 65.7 °F 42% 29.99 in 10.0 mi West 11.5 mph 20.7 mph N/A   Scattered Clouds
1:56 PM 91.4 °F 92.8 °F 64.0 °F 40% 29.98 in 10.0 mi West 11.5 mph 24.2 mph N/A   Scattered Clouds
2:15 PM 91.0 °F 92.2 °F 63.5 °F 40% 29.96 in 10.0 mi West 13.8 mph 17.3 mph N/A   Clear
2:35 PM 92.7 °F 93.6 °F 63.0 °F 37% 29.96 in 10.0 mi WSW 15.0 mph 18.4 mph N/A   Scattered Clouds
2:59 PM 92.1 °F 92.8 °F 62.6 °F 37% 29.95 in 10.0 mi West 9.2 mph 25.3 mph N/A   Scattered Clouds
3:17 PM 92.5 °F 93.3 °F 62.8 °F 37% 29.94 in 10.0 mi WSW 17.3 mph 21.9 mph N/A   Clear
3:36 PM 92.5 °F 93.3 °F 63.0 °F 37% 29.94 in 10.0 mi West 9.2 mph - N/A   Clear
3:55 PM 93.4 °F 93.9 °F 62.2 °F 35% 29.93 in 10.0 mi West 15.0 mph 21.9 mph N/A   Clear
4:15 PM 92.7 °F 92.9 °F 61.3 °F 35% 29.93 in 10.0 mi West 15.0 mph 20.7 mph N/A   Clear
4:39 PM 92.7 °F 93.6 °F 62.8 °F 37% 29.93 in 10.0 mi SW 11.5 mph - N/A   Clear
4:57 PM 93.0 °F 93.8 °F 62.6 °F 36% 29.93 in 10.0 mi WSW 13.8 mph 18.4 mph N/A   Scattered Clouds
5:16 PM 92.7 °F 93.6 °F 62.6 °F 37% 29.92 in 10.0 mi WSW 10.4 mph - N/A   Scattered Clouds
5:35 PM 92.1 °F 92.4 °F 61.7 °F 36% 29.92 in 10.0 mi WSW 13.8 mph - N/A   Clear
5:55 PM 91.9 °F 92.5 °F 62.4 °F 37% 29.92 in 10.0 mi WSW 8.1 mph - N/A   Clear
6:19 PM 91.0 °F 91.5 °F 61.9 °F 38% 29.93 in 10.0 mi WSW 8.1 mph 17.3 mph N/A   Clear
6:37 PM 90.1 °F 90.2 °F 61.5 °F 38% 29.93 in 10.0 mi WSW 9.2 mph - N/A   Clear
6:55 PM 88.7 °F 88.8 °F 61.3 °F 40% 29.94 in 10.0 mi West 5.8 mph - N/A   Clear
7:15 PM 87.1 °F 87.2 °F 61.2 °F 42% 29.94 in 10.0 mi West 5.8 mph - N/A   Clear
7:16 PM 86.9 °F 87.0 °F 61.2 °F 42% 29.94 in 10.0 mi West 4.6 mph - N/A   Clear
7:35 PM 85.6 °F 85.9 °F 61.5 °F 44% 29.95 in 10.0 mi West 4.6 mph - N/A   Clear
7:59 PM 84.2 °F 84.8 °F 61.7 °F 47% 29.96 in 10.0 mi West 5.8 mph - N/A   Clear
8:17 PM 83.3 °F 83.9 °F 61.7 °F 48% 29.96 in 10.0 mi West 4.6 mph - N/A   Clear
8:35 PM 83.5 °F 84.1 °F 62.1 °F 48% 29.96 in 10.0 mi WSW 3.5 mph - N/A   Clear
8:55 PM 81.3 °F 82.3 °F 62.4 °F 52% 29.97 in 10.0 mi SW 3.5 mph - N/A   Clear
9:15 PM 79.7 °F - 63.0 °F 56% 29.97 in 10.0 mi WSW 4.6 mph - N/A   Clear
9:39 PM 78.8 °F - 63.1 °F 59% 29.97 in 10.0 mi WSW 5.8 mph - N/A   Clear
9:57 PM 79.0 °F - 63.0 °F 58% 29.97 in 10.0 mi SW 4.6 mph - N/A   Clear
10:15 PM 77.9 °F - 63.9 °F 62% 29.97 in 10.0 mi WSW 4.6 mph - N/A   Clear
10:35 PM 77.7 °F - 63.7 °F 62% 29.97 in 10.0 mi WSW 3.5 mph - N/A   Clear
10:55 PM 76.6 °F - 63.5 °F 64% 29.97 in 10.0 mi WSW 3.5 mph - N/A   Clear
10:56 PM 76.5 °F - 63.5 °F 64% 29.97 in 10.0 mi WSW 3.5 mph - N/A   Clear
11:19 PM 73.4 °F - 64.4 °F 73% 29.97 in 10.0 mi Calm Calm - N/A   Clear
11:37 PM 72.5 °F - 64.0 °F 75% 29.97 in 10.0 mi Calm Calm - N/A   Clear
11:55 PM 72.3 °F - 64.6 °F 77% 29.96 in 10.0 mi Calm Calm - N/A   Clear